Current Weather Conditions: station 64041

sailwx.info

Wind from 190 at 20 knots

Wave height 1.8 meters (5 feet), 5 second period

Visibility: greater than 5.4 NM

Last reported at 2019-Aug-23 21:00 UTC.
Time now 2019-Aug-23 22:27 UTC

Location: N 60°36' W 002°30'.
View on Google Maps.

See reports from other nearby stations

  
Tides and Currents Weather Stations Pressure Air Temp Water Temp Dewpoint Dewpoint Depression Visibility Wind Speed Wind Dir Waves Ship Positions
date/time (UTC)wind fromknots sea level pressurealtimeterstation pressurevisibilityair tempwater tempwave heightnotes
2019-Aug-23 21:00 190 20 5.4 1.8
2019-Aug-23 20:00 190 20 5.4 1.9
2019-Aug-23 19:00 200 22 5.4 1.9
2019-Aug-23 18:00 200 22 2.2 2.0
2019-Aug-23 17:00 210 20 2.2 1.8
2019-Aug-23 16:00 220 19 5.4 2.0
2019-Aug-23 15:00 180 13 0.5 2.0
2019-Aug-23 14:00 150 8 0.5 2.1
2019-Aug-23 13:00 160 6 27.0 2.2
2019-Aug-23 12:00 190 5 27.0 2.3
2019-Aug-23 11:00 230 6 27.0 2.4
2019-Aug-23 10:00 210 9 27.0 2.7
2019-Aug-23 09:00 220 7 10.8 2.8
2019-Aug-23 08:00 250 8 27.0 2.8
2019-Aug-23 07:00 260 9 27.0 3.0
2019-Aug-23 06:00 250 12 27.0 2.9
2019-Aug-23 05:00 260 13 27.0 3.0
2019-Aug-23 04:00 270 15 27.0 3.6
2019-Aug-23 03:00 260 15 5.4 3.6
2019-Aug-23 02:00 250 15 27.0 3.6
2019-Aug-23 01:00 260 15 10.8 4.0
2019-Aug-23 00:00 260 13 27.0 4.0
2019-Aug-22 23:00 250 14 10.8 4.2
2019-Aug-22 22:00 240 17 10.8 3.6
2019-Aug-22 21:00 220 18 10.8 3.4
2019-Aug-22 20:00 190 20 2.2 2.9
2019-Aug-22 19:00 190 20 5.4 2.6
2019-Aug-22 18:00 160 25 1.1 2.5
2019-Aug-22 17:00 150 24 1.1 2.5
2019-Aug-22 16:00 140 20 2.2 2.3
2019-Aug-22 15:00 150 19 2.2 2.3
2019-Aug-22 14:00 160 18 2.2 2.1
2019-Aug-22 13:00 170 19 2.2 2.1
2019-Aug-22 12:00 180 20 10.8 2.1
2019-Aug-22 11:00 160 15 10.8 2.0
2019-Aug-22 10:00 170 19 10.8 2.3
2019-Aug-22 09:00 180 18 10.8 2.1
2019-Aug-22 08:00 180 15 10.8 2.1
2019-Aug-22 07:00 190 13 10.8 2.1
2019-Aug-22 06:00 190 13 5.4 1.9
2019-Aug-22 05:00 200 13 5.4 2.1
2019-Aug-22 04:00 190 12 5.4 1.9
2019-Aug-22 03:00 210 11 5.4 1.8
2019-Aug-22 02:00 230 13 10.8 1.7
2019-Aug-22 01:00 240 14 10.8 1.6
2019-Aug-22 00:00 180 15 5.4
2019-Aug-21 23:00 170 20 5.4 1.4
2019-Aug-21 22:00 160 18 2.2 1.5